Skip to content

GuitarMania

List of Articles
번호 제목 글쓴이 날짜 조회 수
공지 칭구음악듣기 게시판은요.... 2 2004.04.11 75278
2091 죄송한! 탕고 안 스까이 바이 로랑디앙 (조율 맞춰 재업)ㅠ 8 file buyho 2007.08.26 6344
2090 알함브라궁전의 추억 12 file 정면 2007.08.24 7534
2089 F. Sor의 인커리지먼트 18 file 바하의꿈 2007.08.24 7654
2088 헨델의 대장간변주?^^ Handel--Blacksmith Variations 19 file 바하의꿈 2007.08.23 8766
2087 망고레의 Contemplacion (깊은 그리움) 24 file 아이모레스 2007.08.22 7750
2086 Falla--ThreeCorneredHat(KimMoonHyung & Chung Sehee) 7 file 바하의꿈 2007.08.21 8182
2085 Yuichi Watanabe - Morning Dew 5 file 2007.08.21 8297
2084 Sleepers, Awake! from Cantata BWV140 9 file April 2007.08.20 6652
2083 텅 빈 놀이터 II by devilous 9 file devilous 2007.08.20 6289
2082 [동영상] Barrios - Una Limosna por el amor de Dios (최후의 트레몰로) 39 file 김상욱 2007.08.17 13994
2081 milonga 6 file 2007.08.15 8901
2080 바흐 // Choral from cantata147 arr.David Russell 31 file 진느 2007.08.14 7761
2079 Tango En Skai 11 file 좁은길로 2007.08.13 9503
2078 sunflower 14 file 한사랑 2007.08.13 7809
2077 maria luisa 6 file sky600 2007.08.12 9006
2076 Adelita 2 file sky600 2007.08.12 5309
2075 Classical Gas/Mason Williams -클래식컬 개스 23 file Jason 2007.08.10 10186
2074 Sor Etude#6 10 file 밀롱가. 2007.08.10 6637
2073 로드리고 // 고풍스런 티엔토 30 file 진느 2007.08.08 7526
2072 알베니즈-야자나무 아래에서 13 file 기타레타 2007.08.08 5705
2071 Partners in Praise / 안신영님 편곡 10 file orpheus15 2007.08.07 6348
2070 Estudio No.12 / F. Sor 13 file 이진성 2007.08.06 9107
2069 Sleeprs, Awake! 눈뜨라부르는소리있어 7 file 좁은길로 2007.08.05 7001
2068 로망스 no.1(이중주)-끌레앙 16 file 체르니 2007.08.04 13206
2067 The old rugged cross by G. Bennard 10 file Jason 2007.08.02 6414
2066 Lamento No.2 / F. Kleynjans 12 file 이진성 2007.08.01 8870
2065 클레이앙스-로망스1번(이중주) 6 file 기타레타 2007.07.30 6947
2064 부탁 김효석 2007.07.29 6582
2063 Fur Elise by L. Van Beethoven 62 file Jason 2007.07.28 9496
2062 사람이 꽃보다 아름다워~~~ 4 야매 2007.07.28 9441
2061 P. Bellinati Baiao de Gude 서울기타콰르텟 4 file sgq 2007.07.27 9030
2060 A. Piazzolla Liebertango 1 file sgq 2007.07.27 9169
2059 A. Piazzolla Oblivion(망각) 3 file sgq 2007.07.27 9434
2058 A. Piazzolla Quattro Stagioni (부에노스아이레스의 사계) 1. Primavera portend (봄) 8 file sgq 2007.07.27 7019
2057 BWV1006a Prelude 7 file 좁은길로 2007.07.27 10241
2056 (이중주) Green Sleeves 20 file niceplace 2007.07.27 8992
2055 Septiembre (Maximo Diego Pujol) 21 file 라일 2007.07.26 9026
2054 Aria no.1 - F. Kleynjans 11 file bradpitt 2007.07.24 7642
2053 유키 구라모토의 Lake Louise(새로운 편곡) 17 file 최병욱 2007.07.23 10234
2052 샤콘느 뒤에뒤부분 7 file 좁은길로 2007.07.23 6725
2051 Fantasia Arabe by Sabicas 22 file Jason 2007.07.22 6506
2050 월량대표아적심(月亮代表我的心) 29 이진성 2007.07.19 10864
2049 Variation on Theme of Mozart - F.Sor 32 file Jason 2007.07.15 7447
2048 Wonderful tonight 43 file - 情 - 2007.07.14 9567
2047 Bach - BWV1007 Prelude & Allemande 16 file 김상욱 2007.07.14 7695
2046 Pierre Bensusan - 아도니스의 정원 12 file 찬찬 2007.07.14 7010
2045 이루마의 Kiss the Rain 6 file 최병욱 2007.07.13 9280
2044 G선상의 아리아 - J.S.BACH 43 file 기타레타 2007.07.13 9895
2043 헨델의 아리아 23 file 아이모레스 2007.07.12 9336
2042 이 곡 제목이 뭔가요? 3 file -_ - 2007.07.12 6110
2041 엔커리지먼트-소르 39 file 기타레타 2007.07.11 8457
2040 Giuliani-- Rossiniana No.1 (글로빌 아트홀 실황연주) 15 file LDH 2007.07.11 6995
2039 핑거스타일- Sun dance (Kotaro Oshio) 7 file 최병욱 2007.07.11 9768
2038 하프시 팟사 완주--! 4 file 좁은길로 2007.07.10 7688
2037 도적의 노래-ibach 연주 16 file 바하의꿈 2007.07.10 7609
2036 대성당2악장 4 file 좁은길로 2007.07.09 6204
2035 이병우 - 달려 18 file 김상욱 2007.07.09 7651
2034 [영상] 엘레지 Elegie (메르츠 Mertz) 3 2007.07.09 7782
2033 brahms-theme and variations 20 file 기타레타 2007.07.09 7640
2032 소르의 마적입니다... 19 file 화가 2007.07.08 6853
2031 종소리 12 file 좁은길로 2007.07.07 7277
2030 이루마의 When the love falls 7 file 최병욱 2007.07.07 7972
2029 대성당1악장 8 file 좁은길로 2007.07.05 6277
2028 Triste Santuario by Vincent Gomez-슬픈 예배당 17 file Jason 2007.07.05 10466
2027 Kleine Romanze- L. Walker 10 file Jason 2007.07.05 6629
2026 L'HYMNE A L'AMOUR / E.PIAF 24 file April 2007.07.04 6750
2025 이노래어떤가요? Pulo do Gato(P.Bellinati) 15 file MSGr 2007.07.01 9385
2024 BWV1006a 프렐류드 3 file 좁은길로 2007.06.29 9749
2023 Agua e Vinho - Egberto Gismonti 18 file limnz 2007.06.29 9546
2022 F. Tarrega,Capricho Arabe 33 file Jason 2007.06.28 9512
2021 Koyunbaba - C. Domeniconi 25 file 진느 2007.06.27 6782
2020 쉘부르의 우산 3 file nice guy 2007.06.27 7977
2019 바흐 샤콘느 10 file 좁은길로 2007.06.26 7598
2018 리브라소나티네 3.Fuoco-롤랑디용 27 file MSGr 2007.06.21 7461
2017 fredric hand의 연습곡 1번 4 file 루하기 2007.06.21 5813
2016 유키구라모토의 Meditation 18 file 최병욱 2007.06.19 10879
2015 뱃노래 - 코스트 12 file fernando 2007.06.19 7816
2014 Romance.3번. 다시 올려요 6 file 우체국가는길 2007.06.17 10378
2013 소르 연습곡 6번 8 file niceplace 2007.06.17 7158
2012 [re] 소르 연습곡 6번-리버브를 넣어보았습니다. 1 file niceplace 2007.06.20 6967
2011 알함브라 다시녹음했습니다~ 14 file 최병욱 2007.06.16 7304
2010 Recuerdos de la Alhambra -F. Tarrega 12 file Jason 2007.06.15 8509
2009 오 솔레미오 4 file 밀롱가. 2007.06.14 7896
2008 Kiss the Rain 이루마 곡 (기타 연주) 44 file 아이모레스 2007.06.12 14049
2007 Romance.3번. 10 file 우체국가는길 2007.06.08 9967
2006 I believe 13 file orpheus15 2007.06.08 7190
2005 전설 11 file 최병욱 2007.06.06 7310
2004 최후의 트레몰로 입니다 ^^ 32 file JoDaC 2007.06.06 8246
2003 최후의 트레몰로 (리버브효과없는겁니다..;;) 4 file JoDaC 2007.06.09 6101
2002 zapateado///rodrigo 13 김은미 2007.06.03 9562
2001 Love Affair 6 2007.06.02 6838
2000 L'Hymne_à_l'Amour(사랑의찬가). 4 더카 2007.06.01 7009
1999 대성당 3악장 10 좁은길로 2007.05.30 8088
1998 저도 알함브라궁전의 추억~ 14 file 최병욱 2007.05.30 8016
1997 Schubert Minuet and Trio,Trans by Tarrega 17 file Jason 2007.05.28 7009
1996 Bach-double des govottes,suiteVI 24 file Jason 2007.05.27 6771
1995 Air De Milonga - Jorge Cardoso 16 file 밀롱가. 2007.05.27 9658
1994 망고레왈츠 4번 5 file 좁은길로 2007.05.26 7079
1993 Weiss-Passacaille 51 file Jason 2007.05.22 8369
1992 코스트 연습곡 23번 알레그로 모데라토 13 file 밀롱가. 2007.05.22 7527
Board Pagination ‹ Prev 1 ... 7 8 9 10 11 12 13 14 15 16 17 18 19 20 21 22 23 24 25 26 ... 37 Next ›
/ 37

나눔글꼴 설치 안내


이 PC에는 나눔글꼴이 설치되어 있지 않습니다.

이 사이트를 나눔글꼴로 보기 위해서는
나눔글꼴을 설치해야 합니다.

설치 취소

Designed by sketchbooks.co.kr / sketchbook5 board skin

Sketchbook5, 스케치북5

Sketchbook5, 스케치북5

Sketchbook5, 스케치북5

Sketchbook5, 스케치북5

Powered by Xpress Engine / Designed by hikaru100

abcXYZ, 세종대왕,1234

abcXYZ, 세종대왕,1234